W0QQ Weather Reports


Display with metric or nautical units.
time (UTC)temp
F
wind
direction
speed
MPH
gust
MPH
rain 1hr
in
rain 24hr
in
rain mn
in
humidity
%
barometer
mb
20260906224549 90 87 2.0 6.0 0.00 0.31 0.31 65 1009.7
20260906223013 89 87 3.0 9.0 0.00 0.31 0.31 67 1009.6
20260906221611 88 82 2.0 8.0 0.00 0.31 0.31 70 1009.9
20260906220035 87 82 3.0 10.0 0.00 0.31 0.31 72 1009.7
20260906214627 86 95 1.0 9.0 0.01 0.31 0.31 81 1009.6
20260906213043 84 128 1.0 4.0 0.30 0.31 0.31 84 1009.7
20260906211501 83 99 1.0 4.0 0.31 0.31 0.31 87 1010.1
20260906210104 83 66 0.0 4.0 0.31 0.31 0.31 79 1010.6
20260906204516 85 21 6.0 17.0 0.30 0.30 0.30 69 1011.2
20260906203046 96 118 2.0 13.0 0.06 0.06 0.06 61 1012.2
20260906201548 97 80 3.0 8.0 0.00 0.00 0.00 49 1011.2
20260906200045 98 11 2.0 8.0 0.00 0.00 0.00 48 1011.4
20260906194553 98 107 2.0 6.0 0.00 0.00 0.00 46 1011.6
20260906193039 99 58 3.0 6.0 0.00 0.00 0.00 46 1011.7
20260906191538 100 69 1.0 3.0 0.00 0.00 0.00 47 1011.8
20260906190037 100 11 2.0 6.0 0.00 0.00 0.00 46 1011.9
20260906184536 100 141 0.0 6.0 0.00 0.00 0.00 48 1012.2
20260906183040 99 106 1.0 4.0 0.00 0.00 0.00 48 1012.4
20260906181536 98 11 1.0 8.0 0.00 0.00 0.00 51 1012.7
20260906180029 98 11 1.0 4.0 0.00 0.00 0.00 50 1013.0
20260906174521 98 11 0.0 9.0 0.00 0.00 0.00 51 1013.2
20260906173019 98 11 1.0 6.0 0.00 0.00 0.00 51 1013.4
20260906171515 97 128 0.0 4.0 0.00 0.00 0.00 54 1013.6
20260906170016 96 11 2.0 6.0 0.00 0.00 0.00 53 1014.0
20260906164512 96 121 0.0 4.0 0.00 0.00 0.00 54 1014.0
20260906163010 96 145 2.0 8.0 0.00 0.00 0.00 54 1014.1
20260906161508 94 97 0.0 6.0 0.00 0.00 0.00 59 1014.1
20260906160003 93 90 3.0 9.0 0.00 0.00 0.00 58 1013.9
20260906154600 92 11 3.0 8.0 0.00 0.00 0.00 61 1014.0
20260906153155 91 109 2.0 7.0 0.00 0.00 0.00 62 1013.9
20260906151551 89 11 3.0 7.0 0.00 0.00 0.00 64 1013.9
20260906150046 88 124 3.0 8.0 0.00 0.00 0.00 67 1014.0
20260906144542 86 11 2.0 4.0 0.00 0.00 0.00 70 1014.0
20260906143037 84 136 4.0 9.0 0.00 0.00 0.00 74 1014.1
20260906141533 81 95 1.0 5.0 0.00 0.00 0.00 81 1014.0
20260906140034 79 90 1.0 6.0 0.00 0.00 0.00 84 1014.0
20260906134526 78 43 1.0 3.0 0.00 0.00 0.00 86 1013.8
20260906133031 77 78 1.0 4.0 0.00 0.00 0.00 88 1013.7
20260906131522 76 11 1.0 4.0 0.00 0.00 0.00 90 1013.6
20260906130024 75 89 1.0 4.0 0.00 0.00 0.00 90 1013.3
20260906124521 75 11 1.0 3.0 0.00 0.00 0.00 90 1013.3
20260906123020 75 100 0.0 1.0 0.00 0.00 0.00 89 1013.1
20260906121530 75 99 0.0 1.0 0.00 0.00 0.00 88 1013.0
20260906120013 75 99 0.0 3.0 0.00 0.00 0.00 88 1012.8
20260906114520 75 11 0.0 1.0 0.00 0.00 0.00 87 1012.9
20260906113011 75 101 0.0 3.0 0.00 0.00 0.00 86 1012.8
20260906111509 75 103 0.0 4.0 0.00 0.00 0.00 85 1012.6
20260906110007 76 11 0.0 1.0 0.00 0.00 0.00 85 1012.6
20260906104506 76 114 0.0 0.0 0.00 0.00 0.00 85 1012.5
20260906103012 76 115 0.0 2.0 0.00 0.00 0.00 85 1012.4
20260906101503 76 11 0.0 3.0 0.00 0.00 0.00 86 1012.4
20260906100003 76 11 1.0 4.0 0.00 0.00 0.00 87 1012.2
20260906094606 76 11 1.0 3.0 0.00 0.00 0.00 88 1012.2
20260906093059 77 105 0.0 3.0 0.00 0.00 0.00 88 1012.3
20260906091556 77 108 0.0 2.0 0.00 0.00 0.00 87 1012.2
20260906090055 77 107 1.0 3.0 0.00 0.00 0.00 86 1012.2
20260906084556 77 107 0.0 3.0 0.00 0.00 0.00 86 1012.1
20260906083051 77 128 1.0 3.0 0.00 0.00 0.00 84 1012.0
20260906081548 78 11 0.0 0.0 0.00 0.00 0.00 83 1011.8
20260906080047 78 126 0.0 0.0 0.00 0.00 0.00 82 1011.8
20260906074545 78 126 0.0 1.0 0.00 0.00 0.00 81 1011.8
20260906073043 79 126 0.0 0.0 0.00 0.00 0.00 80 1011.8
20260906071541 79 11 0.0 1.0 0.00 0.00 0.00 79 1011.8
20260906070039 79 11 0.0 0.0 0.00 0.00 0.00 77 1011.8
20260906064537 80 126 0.0 1.0 0.00 0.00 0.00 76 1012.0
20260906063036 81 126 1.0 2.0 0.00 0.00 0.00 76 1012.0
20260906061532 81 126 0.0 2.0 0.00 0.00 0.00 75 1012.1
20260906060031 81 11 0.0 3.0 0.00 0.00 0.00 74 1012.0
20260906054528 82 126 1.0 2.0 0.00 0.00 0.00 73 1012.3
20260906053025 83 126 0.0 2.0 0.00 0.00 0.00 72 1012.3
20260906051523 83 126 0.0 2.0 0.00 0.00 0.00 72 1012.3
20260906050021 83 11 0.0 2.0 0.00 0.00 0.00 71 1012.2
20260906044520 83 11 1.0 3.0 0.00 0.00 0.00 71 1012.1
20260906043028 83 11 1.0 4.0 0.00 0.00 0.00 71 1012.3
20260906041519 84 11 1.0 3.0 0.00 0.00 0.00 70 1012.1
20260906040019 84 11 0.0 3.0 0.00 0.00 0.00 70 1012.1
20260906034532 84 125 1.0 4.0 0.00 0.00 0.00 69 1012.0
20260906033018 85 11 1.0 3.0 0.00 0.00 0.00 69 1011.9
20260906031526 85 128 1.0 3.0 0.00 0.00 0.00 69 1011.8
20260906030017 85 11 1.0 3.0 0.00 0.00 0.00 69 1011.7
20260906024516 85 109 1.0 3.0 0.00 0.00 0.00 69 1011.3
20260906023015 85 11 1.0 2.0 0.00 0.00 0.00 67 1011.2
20260906021515 86 97 0.0 3.0 0.00 0.00 0.00 66 1010.9
20260906020014 87 97 0.0 2.0 0.00 0.00 0.00 65 1010.6
20260906014515 88 97 1.0 3.0 0.00 0.00 0.00 63 1010.6
20260906013014 89 98 1.0 3.0 0.00 0.00 0.00 62 1010.4
20260906011513 90 93 1.0 5.0 0.00 0.00 0.00 60 1010.3
20260906010013 91 93 2.0 5.0 0.00 0.00 0.00 59 1010.3
20260906004512 91 72 1.0 4.0 0.00 0.00 0.00 57 1010.2
20260906003012 92 64 2.0 4.0 0.00 0.00 0.00 56 1010.2
20260906001516 93 122 1.0 3.0 0.00 0.00 0.00 53 1010.1
20260906000011 94 216 0.0 0.0 0.00 0.00 0.00 51 1010.0
20260905234511 96 216 0.0 1.0 0.00 0.00 0.00 49 1010.0
20260905233014 97 216 0.0 4.0 0.00 0.00 0.00 47 1010.0
20260905231514 97 191 1.0 4.0 0.00 0.00 0.00 43 1009.9
20260905230009 98 201 1.0 3.0 0.00 0.00 0.00 44 1009.9